owner,sensor,date,latitude,longitude,relative_humidity,qcFlag 
COMPS,ioos:station:USF.COMPS:C10:1,2019-08-01T00:35:00,27.1690,-82.9260,86.43,11111222 
COMPS,ioos:station:USF.COMPS:C10:1,2019-08-01T01:35:00,27.1690,-82.9260,81.04,11111222 
COMPS,ioos:station:USF.COMPS:C10:1,2019-08-01T02:35:00,27.1690,-82.9260,67.75,11111222 
COMPS,ioos:station:USF.COMPS:C10:1,2019-08-01T03:35:00,27.1690,-82.9260,78.7,11111222 
COMPS,ioos:station:USF.COMPS:C10:1,2019-08-01T04:35:00,27.1690,-82.9260,81.63,11111222 
COMPS,ioos:station:USF.COMPS:C10:1,2019-08-01T05:35:00,27.1690,-82.9260,80.81,11111222 
COMPS,ioos:station:USF.COMPS:C10:1,2019-08-01T06:35:00,27.1690,-82.9260,77.36,11111222 
COMPS,ioos:station:USF.COMPS:C10:1,2019-08-01T07:35:00,27.1690,-82.9260,75.33,11111222 
COMPS,ioos:station:USF.COMPS:C10:1,2019-08-01T09:35:00,27.1690,-82.9260,80.65,11111222 
COMPS,ioos:station:USF.COMPS:C10:1,2019-08-01T10:35:00,27.1690,-82.9260,79.63,11111222 
COMPS,ioos:station:USF.COMPS:C10:1,2019-08-01T11:35:00,27.1690,-82.9260,81.0,11111222 
COMPS,ioos:station:USF.COMPS:C10:1,2019-08-01T14:35:00,27.1690,-82.9260,83.87,11111222 
COMPS,ioos:station:USF.COMPS:C10:1,2019-08-01T16:35:00,27.1690,-82.9260,79.74,11111222 
COMPS,ioos:station:USF.COMPS:C10:1,2019-08-01T18:35:00,27.1690,-82.9260,71.42,11111222 
COMPS,ioos:station:USF.COMPS:C10:1,2019-08-01T19:35:00,27.1690,-82.9260,74.37,11111222 
COMPS,ioos:station:USF.COMPS:C10:1,2019-08-01T20:35:00,27.1690,-82.9260,75.04,11111222 
COMPS,ioos:station:USF.COMPS:C10:1,2019-08-01T21:35:00,27.1690,-82.9260,75.66,11111222 
COMPS,ioos:station:USF.COMPS:C10:1,2019-08-01T23:35:00,27.1690,-82.9260,84.59,11111222 
COMPS,ioos:station:USF.COMPS:C10:1,2019-08-02T00:35:00,27.1690,-82.9260,83.91,11111222 
COMPS,ioos:station:USF.COMPS:C10:1,2019-08-02T01:35:00,27.1690,-82.9260,86.84,11111222 
COMPS,ioos:station:USF.COMPS:C10:1,2019-08-02T02:35:00,27.1690,-82.9260,89.04,11111222 
COMPS,ioos:station:USF.COMPS:C10:1,2019-08-02T03:35:00,27.1690,-82.9260,87.92,11111222 
COMPS,ioos:station:USF.COMPS:C10:1,2019-08-02T06:35:00,27.1690,-82.9260,87.69,11111222 
COMPS,ioos:station:USF.COMPS:C10:1,2019-08-02T07:35:00,27.1690,-82.9260,87.71,11111222 
COMPS,ioos:station:USF.COMPS:C10:1,2019-08-02T08:35:00,27.1690,-82.9260,85.04,11111222 
COMPS,ioos:station:USF.COMPS:C10:1,2019-08-02T09:35:00,27.1690,-82.9260,87.25,11111222 
COMPS,ioos:station:USF.COMPS:C10:1,2019-08-02T10:35:00,27.1690,-82.9260,88.98,11111222 
COMPS,ioos:station:USF.COMPS:C10:1,2019-08-02T11:35:00,27.1690,-82.9260,89.13,11111222 
COMPS,ioos:station:USF.COMPS:C10:1,2019-08-02T12:35:00,27.1690,-82.9260,89.68,11111222 
COMPS,ioos:station:USF.COMPS:C10:1,2019-08-02T13:35:00,27.1690,-82.9260,89.47,11111222 
COMPS,ioos:station:USF.COMPS:C10:1,2019-08-02T14:35:00,27.1690,-82.9260,86.98,11111222 
COMPS,ioos:station:USF.COMPS:C10:1,2019-08-02T15:35:00,27.1690,-82.9260,85.82,11111222 
COMPS,ioos:station:USF.COMPS:C10:1,2019-08-02T17:35:00,27.1690,-82.9260,80.3,11111222 
COMPS,ioos:station:USF.COMPS:C10:1,2019-08-02T19:35:00,27.1690,-82.9260,78.02,11111222 
COMPS,ioos:station:USF.COMPS:C10:1,2019-08-02T20:35:00,27.1690,-82.9260,78.11,11111222 
COMPS,ioos:station:USF.COMPS:C10:1,2019-08-02T21:35:00,27.1690,-82.9260,79.55,11111222 
COMPS,ioos:station:USF.COMPS:C10:1,2019-08-02T22:35:00,27.1690,-82.9260,78.33,11111222 
COMPS,ioos:station:USF.COMPS:C10:1,2019-08-02T23:35:00,27.1690,-82.9260,77.25,11111222 
COMPS,ioos:station:USF.COMPS:C10:1,2019-08-03T00:35:00,27.1690,-82.9260,78.85,11111222 
COMPS,ioos:station:USF.COMPS:C10:1,2019-08-03T01:35:00,27.1690,-82.9260,90.2,11111222 
COMPS,ioos:station:USF.COMPS:C10:1,2019-08-03T03:35:00,27.1690,-82.9260,89.02,11111222 
COMPS,ioos:station:USF.COMPS:C10:1,2019-08-03T04:35:00,27.1690,-82.9260,87.84,11111222 
COMPS,ioos:station:USF.COMPS:C10:1,2019-08-03T05:35:00,27.1690,-82.9260,84.74,11111222 
COMPS,ioos:station:USF.COMPS:C10:1,2019-08-03T06:35:00,27.1690,-82.9260,83.82,11111222 
COMPS,ioos:station:USF.COMPS:C10:1,2019-08-03T07:35:00,27.1690,-82.9260,83.85,11111222 
COMPS,ioos:station:USF.COMPS:C10:1,2019-08-03T08:35:00,27.1690,-82.9260,80.61,11111222 
COMPS,ioos:station:USF.COMPS:C10:1,2019-08-03T09:35:00,27.1690,-82.9260,81.06,11111222 
COMPS,ioos:station:USF.COMPS:C10:1,2019-08-03T10:35:00,27.1690,-82.9260,79.49,11111222 
COMPS,ioos:station:USF.COMPS:C10:1,2019-08-03T11:35:00,27.1690,-82.9260,78.72,11111222 
COMPS,ioos:station:USF.COMPS:C10:1,2019-08-03T12:35:00,27.1690,-82.9260,78.55,11111222 
COMPS,ioos:station:USF.COMPS:C10:1,2019-08-03T13:35:00,27.1690,-82.9260,78.69,11111222 
COMPS,ioos:station:USF.COMPS:C10:1,2019-08-03T14:35:00,27.1690,-82.9260,77.5,11111222 
COMPS,ioos:station:USF.COMPS:C10:1,2019-08-03T15:35:00,27.1690,-82.9260,76.5,11111222 
COMPS,ioos:station:USF.COMPS:C10:1,2019-08-03T16:35:00,27.1690,-82.9260,81.39,11111222 
COMPS,ioos:station:USF.COMPS:C10:1,2019-08-03T17:35:00,27.1690,-82.9260,77.69,11111222 
COMPS,ioos:station:USF.COMPS:C10:1,2019-08-03T18:35:00,27.1690,-82.9260,78.12,11111222 
COMPS,ioos:station:USF.COMPS:C10:1,2019-08-03T19:35:00,27.1690,-82.9260,78.53,11111222 
COMPS,ioos:station:USF.COMPS:C10:1,2019-08-03T20:35:00,27.1690,-82.9260,77.5,11111222 
COMPS,ioos:station:USF.COMPS:C10:1,2019-08-03T21:35:00,27.1690,-82.9260,76.07,11111222 
COMPS,ioos:station:USF.COMPS:C10:1,2019-08-04T00:35:00,27.1690,-82.9260,77.01,11111222 
COMPS,ioos:station:USF.COMPS:C10:1,2019-08-04T01:35:00,27.1690,-82.9260,78.42,11111222 
COMPS,ioos:station:USF.COMPS:C10:1,2019-08-04T02:35:00,27.1690,-82.9260,78.92,11111222 
COMPS,ioos:station:USF.COMPS:C10:1,2019-08-04T03:35:00,27.1690,-82.9260,77.72,11111222 
COMPS,ioos:station:USF.COMPS:C10:1,2019-08-04T04:35:00,27.1690,-82.9260,77.76,11111222 
COMPS,ioos:station:USF.COMPS:C10:1,2019-08-04T05:35:00,27.1690,-82.9260,78.0,11111222 
COMPS,ioos:station:USF.COMPS:C10:1,2019-08-04T06:35:00,27.1690,-82.9260,78.42,11111222 
COMPS,ioos:station:USF.COMPS:C10:1,2019-08-04T07:35:00,27.1690,-82.9260,77.29,11111222 
COMPS,ioos:station:USF.COMPS:C10:1,2019-08-04T08:35:00,27.1690,-82.9260,75.77,11111222 
COMPS,ioos:station:USF.COMPS:C10:1,2019-08-04T09:35:00,27.1690,-82.9260,77.54,11111222 
COMPS,ioos:station:USF.COMPS:C10:1,2019-08-04T10:35:00,27.1690,-82.9260,78.23,11111222 
COMPS,ioos:station:USF.COMPS:C10:1,2019-08-04T11:35:00,27.1690,-82.9260,78.57,11111222 
COMPS,ioos:station:USF.COMPS:C10:1,2019-08-04T12:35:00,27.1690,-82.9260,77.09,11111222 
COMPS,ioos:station:USF.COMPS:C10:1,2019-08-04T13:35:00,27.1690,-82.9260,77.1,11111222 
COMPS,ioos:station:USF.COMPS:C10:1,2019-08-04T14:35:00,27.1690,-82.9260,74.57,11111222 
COMPS,ioos:station:USF.COMPS:C10:1,2019-08-04T15:35:00,27.1690,-82.9260,74.07,11111222 
COMPS,ioos:station:USF.COMPS:C10:1,2019-08-04T16:35:00,27.1690,-82.9260,76.4,11111222 
COMPS,ioos:station:USF.COMPS:C10:1,2019-08-04T17:35:00,27.1690,-82.9260,72.75,11111222 
COMPS,ioos:station:USF.COMPS:C10:1,2019-08-04T18:35:00,27.1690,-82.9260,73.97,11111222 
COMPS,ioos:station:USF.COMPS:C10:1,2019-08-04T19:35:00,27.1690,-82.9260,74.63,11111222 
COMPS,ioos:station:USF.COMPS:C10:1,2019-08-04T20:35:00,27.1690,-82.9260,69.77,11111222 
COMPS,ioos:station:USF.COMPS:C10:1,2019-08-04T21:35:00,27.1690,-82.9260,73.87,11111222 
COMPS,ioos:station:USF.COMPS:C10:1,2019-08-04T22:35:00,27.1690,-82.9260,72.82,11111222 
COMPS,ioos:station:USF.COMPS:C10:1,2019-08-05T00:35:00,27.1690,-82.9260,74.39,11111222 
COMPS,ioos:station:USF.COMPS:C10:1,2019-08-05T01:35:00,27.1690,-82.9260,75.52,11111222 
COMPS,ioos:station:USF.COMPS:C10:1,2019-08-05T02:35:00,27.1690,-82.9260,77.51,11111222 
COMPS,ioos:station:USF.COMPS:C10:1,2019-08-05T03:35:00,27.1690,-82.9260,77.21,11111222 
COMPS,ioos:station:USF.COMPS:C10:1,2019-08-05T04:35:00,27.1690,-82.9260,76.56,11111222 
COMPS,ioos:station:USF.COMPS:C10:1,2019-08-05T05:35:00,27.1690,-82.9260,72.32,11111222 
COMPS,ioos:station:USF.COMPS:C10:1,2019-08-05T06:35:00,27.1690,-82.9260,76.43,11111222 
COMPS,ioos:station:USF.COMPS:C10:1,2019-08-05T07:35:00,27.1690,-82.9260,76.07,11111222 
COMPS,ioos:station:USF.COMPS:C10:1,2019-08-05T08:35:00,27.1690,-82.9260,77.61,11111222 
COMPS,ioos:station:USF.COMPS:C10:1,2019-08-05T09:35:00,27.1690,-82.9260,75.66,11111222 
COMPS,ioos:station:USF.COMPS:C10:1,2019-08-05T10:35:00,27.1690,-82.9260,73.23,11111222 
COMPS,ioos:station:USF.COMPS:C10:1,2019-08-05T11:35:00,27.1690,-82.9260,77.47,11111222 
COMPS,ioos:station:USF.COMPS:C10:1,2019-08-05T12:35:00,27.1690,-82.9260,77.57,11111222 
COMPS,ioos:station:USF.COMPS:C10:1,2019-08-05T13:35:00,27.1690,-82.9260,84.01,11111222 
COMPS,ioos:station:USF.COMPS:C10:1,2019-08-05T14:35:00,27.1690,-82.9260,80.93,11111222 
COMPS,ioos:station:USF.COMPS:C10:1,2019-08-05T15:35:00,27.1690,-82.9260,78.46,11111222 
COMPS,ioos:station:USF.COMPS:C10:1,2019-08-05T16:35:00,27.1690,-82.9260,77.97,11111222 
COMPS,ioos:station:USF.COMPS:C10:1,2019-08-05T17:35:00,27.1690,-82.9260,79.34,11111222 
COMPS,ioos:station:USF.COMPS:C10:1,2019-08-05T18:35:00,27.1690,-82.9260,78.12,11111222 
COMPS,ioos:station:USF.COMPS:C10:1,2019-08-05T19:35:00,27.1690,-82.9260,78.38,11111222 
COMPS,ioos:station:USF.COMPS:C10:1,2019-08-05T20:35:00,27.1690,-82.9260,75.04,11111222 
COMPS,ioos:station:USF.COMPS:C10:1,2019-08-05T21:35:00,27.1690,-82.9260,83.42,11111222 
COMPS,ioos:station:USF.COMPS:C10:1,2019-08-05T23:35:00,27.1690,-82.9260,82.1,11111222 
COMPS,ioos:station:USF.COMPS:C10:1,2019-08-06T00:35:00,27.1690,-82.9260,75.09,11111222 
COMPS,ioos:station:USF.COMPS:C10:1,2019-08-06T01:35:00,27.1690,-82.9260,74.29,11111222 
COMPS,ioos:station:USF.COMPS:C10:1,2019-08-06T02:35:00,27.1690,-82.9260,78.06,11111222 
COMPS,ioos:station:USF.COMPS:C10:1,2019-08-06T03:35:00,27.1690,-82.9260,83.88,11111222 
COMPS,ioos:station:USF.COMPS:C10:1,2019-08-06T04:35:00,27.1690,-82.9260,80.59,11111222 
COMPS,ioos:station:USF.COMPS:C10:1,2019-08-06T05:35:00,27.1690,-82.9260,78.08,11111222 
COMPS,ioos:station:USF.COMPS:C10:1,2019-08-06T07:35:00,27.1690,-82.9260,83.25,11111222 
COMPS,ioos:station:USF.COMPS:C10:1,2019-08-06T08:35:00,27.1690,-82.9260,81.22,11111222 
COMPS,ioos:station:USF.COMPS:C10:1,2019-08-06T09:35:00,27.1690,-82.9260,80.3,11111222 
COMPS,ioos:station:USF.COMPS:C10:1,2019-08-06T10:35:00,27.1690,-82.9260,78.88,11111222 
COMPS,ioos:station:USF.COMPS:C10:1,2019-08-06T11:35:00,27.1690,-82.9260,80.31,11111222 
COMPS,ioos:station:USF.COMPS:C10:1,2019-08-06T12:35:00,27.1690,-82.9260,78.72,11111222 
COMPS,ioos:station:USF.COMPS:C10:1,2019-08-06T13:35:00,27.1690,-82.9260,78.57,11111222 
COMPS,ioos:station:USF.COMPS:C10:1,2019-08-06T14:35:00,27.1690,-82.9260,82.13,11111222 
COMPS,ioos:station:USF.COMPS:C10:1,2019-08-06T15:35:00,27.1690,-82.9260,78.87,11111222 
COMPS,ioos:station:USF.COMPS:C10:1,2019-08-06T16:35:00,27.1690,-82.9260,76.35,11111222 
COMPS,ioos:station:USF.COMPS:C10:1,2019-08-06T17:35:00,27.1690,-82.9260,74.73,11111222 
COMPS,ioos:station:USF.COMPS:C10:1,2019-08-06T18:35:00,27.1690,-82.9260,78.35,11111222 
COMPS,ioos:station:USF.COMPS:C10:1,2019-08-06T19:35:00,27.1690,-82.9260,76.95,11111222 
COMPS,ioos:station:USF.COMPS:C10:1,2019-08-06T20:35:00,27.1690,-82.9260,76.18,11111222 
COMPS,ioos:station:USF.COMPS:C10:1,2019-08-06T21:35:00,27.1690,-82.9260,76.79,11111222 
COMPS,ioos:station:USF.COMPS:C10:1,2019-08-06T22:35:00,27.1690,-82.9260,74.97,11111222 
COMPS,ioos:station:USF.COMPS:C10:1,2019-08-07T00:35:00,27.1690,-82.9260,76.83,11111222 
COMPS,ioos:station:USF.COMPS:C10:1,2019-08-07T01:35:00,27.1690,-82.9260,78.94,11111222 
COMPS,ioos:station:USF.COMPS:C10:1,2019-08-07T02:35:00,27.1690,-82.9260,78.92,11111222 
COMPS,ioos:station:USF.COMPS:C10:1,2019-08-07T03:35:00,27.1690,-82.9260,76.34,11111222 
COMPS,ioos:station:USF.COMPS:C10:1,2019-08-07T04:35:00,27.1690,-82.9260,80.95,11111222 
COMPS,ioos:station:USF.COMPS:C10:1,2019-08-07T05:35:00,27.1690,-82.9260,81.51,11111222 
COMPS,ioos:station:USF.COMPS:C10:1,2019-08-07T06:35:00,27.1690,-82.9260,83.24,11111222 
COMPS,ioos:station:USF.COMPS:C10:1,2019-08-07T07:35:00,27.1690,-82.9260,80.13,11111222 
COMPS,ioos:station:USF.COMPS:C10:1,2019-08-07T08:35:00,27.1690,-82.9260,78.79,11111222 
COMPS,ioos:station:USF.COMPS:C10:1,2019-08-07T09:35:00,27.1690,-82.9260,80.79,11111222 
COMPS,ioos:station:USF.COMPS:C10:1,2019-08-07T10:35:00,27.1690,-82.9260,81.94,11111222 
COMPS,ioos:station:USF.COMPS:C10:1,2019-08-07T11:35:00,27.1690,-82.9260,79.26,11111222 
COMPS,ioos:station:USF.COMPS:C10:1,2019-08-07T12:35:00,27.1690,-82.9260,79.54,11111222 
COMPS,ioos:station:USF.COMPS:C10:1,2019-08-07T13:35:00,27.1690,-82.9260,80.11,11111222 
COMPS,ioos:station:USF.COMPS:C10:1,2019-08-07T14:35:00,27.1690,-82.9260,77.59,11111222 
COMPS,ioos:station:USF.COMPS:C10:1,2019-08-07T15:35:00,27.1690,-82.9260,77.09,11111222 
COMPS,ioos:station:USF.COMPS:C10:1,2019-08-07T16:35:00,27.1690,-82.9260,78.92,11111222 
COMPS,ioos:station:USF.COMPS:C10:1,2019-08-07T17:35:00,27.1690,-82.9260,76.84,11111222 
COMPS,ioos:station:USF.COMPS:C10:1,2019-08-07T18:35:00,27.1690,-82.9260,75.8,11111222 
COMPS,ioos:station:USF.COMPS:C10:1,2019-08-07T19:35:00,27.1690,-82.9260,75.04,11111222 
COMPS,ioos:station:USF.COMPS:C10:1,2019-08-07T20:35:00,27.1690,-82.9260,78.45,11111222 
COMPS,ioos:station:USF.COMPS:C10:1,2019-08-07T21:35:00,27.1690,-82.9260,75.61,11111222 
COMPS,ioos:station:USF.COMPS:C10:1,2019-08-07T22:35:00,27.1690,-82.9260,83.1,11111222 
COMPS,ioos:station:USF.COMPS:C10:1,2019-08-07T23:35:00,27.1690,-82.9260,81.87,11111222 
COMPS,ioos:station:USF.COMPS:C10:1,2019-08-08T00:35:00,27.1690,-82.9260,82.29,11111222 
COMPS,ioos:station:USF.COMPS:C10:1,2019-08-08T01:35:00,27.1690,-82.9260,70.17,11111222 
COMPS,ioos:station:USF.COMPS:C10:1,2019-08-08T02:35:00,27.1690,-82.9260,81.67,11111222 
COMPS,ioos:station:USF.COMPS:C10:1,2019-08-08T03:35:00,27.1690,-82.9260,77.59,11111222 
COMPS,ioos:station:USF.COMPS:C10:1,2019-08-08T06:35:00,27.1690,-82.9260,76.3,11111222 
COMPS,ioos:station:USF.COMPS:C10:1,2019-08-08T07:35:00,27.1690,-82.9260,79.49,11111222 
COMPS,ioos:station:USF.COMPS:C10:1,2019-08-08T08:35:00,27.1690,-82.9260,79.04,11111222 
COMPS,ioos:station:USF.COMPS:C10:1,2019-08-08T09:35:00,27.1690,-82.9260,80.3,11111222 
COMPS,ioos:station:USF.COMPS:C10:1,2019-08-08T10:35:00,27.1690,-82.9260,81.17,11111222 
COMPS,ioos:station:USF.COMPS:C10:1,2019-08-08T11:35:00,27.1690,-82.9260,80.16,11111222 
COMPS,ioos:station:USF.COMPS:C10:1,2019-08-08T12:35:00,27.1690,-82.9260,79.77,11111222 
COMPS,ioos:station:USF.COMPS:C10:1,2019-08-08T13:35:00,27.1690,-82.9260,79.3,11111222 
COMPS,ioos:station:USF.COMPS:C10:1,2019-08-08T14:35:00,27.1690,-82.9260,77.19,11111222 
COMPS,ioos:station:USF.COMPS:C10:1,2019-08-08T15:35:00,27.1690,-82.9260,77.48,11111222 
COMPS,ioos:station:USF.COMPS:C10:1,2019-08-08T16:35:00,27.1690,-82.9260,77.73,11111222 
COMPS,ioos:station:USF.COMPS:C10:1,2019-08-08T17:35:00,27.1690,-82.9260,76.51,11111222 
COMPS,ioos:station:USF.COMPS:C10:1,2019-08-08T18:35:00,27.1690,-82.9260,76.06,11111222 
COMPS,ioos:station:USF.COMPS:C10:1,2019-08-08T19:35:00,27.1690,-82.9260,77.05,11111222 
COMPS,ioos:station:USF.COMPS:C10:1,2019-08-08T20:35:00,27.1690,-82.9260,79.39,11111222 
COMPS,ioos:station:USF.COMPS:C10:1,2019-08-08T21:35:00,27.1690,-82.9260,76.82,11111222 
COMPS,ioos:station:USF.COMPS:C10:1,2019-08-08T22:35:00,27.1690,-82.9260,78.75,11111222 
COMPS,ioos:station:USF.COMPS:C10:1,2019-08-08T23:35:00,27.1690,-82.9260,79.5,11111222 
COMPS,ioos:station:USF.COMPS:C10:1,2019-08-09T00:35:00,27.1690,-82.9260,77.63,11111222 
COMPS,ioos:station:USF.COMPS:C10:1,2019-08-09T01:35:00,27.1690,-82.9260,83.07,11111222 
COMPS,ioos:station:USF.COMPS:C10:1,2019-08-09T02:35:00,27.1690,-82.9260,81.73,11111222 
COMPS,ioos:station:USF.COMPS:C10:1,2019-08-09T03:35:00,27.1690,-82.9260,80.82,11111222 
COMPS,ioos:station:USF.COMPS:C10:1,2019-08-09T04:35:00,27.1690,-82.9260,79.36,11111222 
COMPS,ioos:station:USF.COMPS:C10:1,2019-08-09T05:35:00,27.1690,-82.9260,81.3,11111222 
COMPS,ioos:station:USF.COMPS:C10:1,2019-08-09T06:35:00,27.1690,-82.9260,83.1,11111222 
COMPS,ioos:station:USF.COMPS:C10:1,2019-08-09T07:35:00,27.1690,-82.9260,79.93,11111222 
COMPS,ioos:station:USF.COMPS:C10:1,2019-08-09T08:35:00,27.1690,-82.9260,81.47,11111222 
COMPS,ioos:station:USF.COMPS:C10:1,2019-08-09T09:35:00,27.1690,-82.9260,79.56,11111222 
COMPS,ioos:station:USF.COMPS:C10:1,2019-08-09T10:35:00,27.1690,-82.9260,80.81,11111222 
COMPS,ioos:station:USF.COMPS:C10:1,2019-08-09T11:35:00,27.1690,-82.9260,79.41,11111222 
COMPS,ioos:station:USF.COMPS:C10:1,2019-08-09T12:35:00,27.1690,-82.9260,79.42,11111222 
COMPS,ioos:station:USF.COMPS:C10:1,2019-08-09T13:35:00,27.1690,-82.9260,78.63,11111222 
COMPS,ioos:station:USF.COMPS:C10:1,2019-08-09T14:35:00,27.1690,-82.9260,77.34,11111222 
COMPS,ioos:station:USF.COMPS:C10:1,2019-08-09T15:35:00,27.1690,-82.9260,73.96,11111222 
COMPS,ioos:station:USF.COMPS:C10:1,2019-08-09T16:35:00,27.1690,-82.9260,80.39,11111222 
COMPS,ioos:station:USF.COMPS:C10:1,2019-08-09T17:35:00,27.1690,-82.9260,77.74,11111222 
COMPS,ioos:station:USF.COMPS:C10:1,2019-08-09T18:35:00,27.1690,-82.9260,80.39,11111222 
COMPS,ioos:station:USF.COMPS:C10:1,2019-08-09T19:35:00,27.1690,-82.9260,80.66,11111222 
COMPS,ioos:station:USF.COMPS:C10:1,2019-08-09T20:35:00,27.1690,-82.9260,80.97,11111222 
COMPS,ioos:station:USF.COMPS:C10:1,2019-08-09T21:35:00,27.1690,-82.9260,77.04,11111222 
COMPS,ioos:station:USF.COMPS:C10:1,2019-08-09T22:35:00,27.1690,-82.9260,78.43,11111222 
COMPS,ioos:station:USF.COMPS:C10:1,2019-08-09T23:35:00,27.1690,-82.9260,73.36,11111222 
COMPS,ioos:station:USF.COMPS:C10:1,2019-08-10T00:35:00,27.1690,-82.9260,76.17,11111222 
COMPS,ioos:station:USF.COMPS:C10:1,2019-08-10T01:35:00,27.1690,-82.9260,77.39,11111222 
COMPS,ioos:station:USF.COMPS:C10:1,2019-08-10T02:35:00,27.1690,-82.9260,79.88,11111222 
COMPS,ioos:station:USF.COMPS:C10:1,2019-08-10T04:35:00,27.1690,-82.9260,82.72,11111222 
COMPS,ioos:station:USF.COMPS:C10:1,2019-08-10T05:35:00,27.1690,-82.9260,84.13,11111222 
COMPS,ioos:station:USF.COMPS:C10:1,2019-08-10T06:35:00,27.1690,-82.9260,81.5,11111222 
COMPS,ioos:station:USF.COMPS:C10:1,2019-08-10T07:35:00,27.1690,-82.9260,79.93,11111222 
COMPS,ioos:station:USF.COMPS:C10:1,2019-08-10T08:35:00,27.1690,-82.9260,83.41,11111222 
COMPS,ioos:station:USF.COMPS:C10:1,2019-08-10T09:35:00,27.1690,-82.9260,83.1,11111222 
COMPS,ioos:station:USF.COMPS:C10:1,2019-08-10T10:35:00,27.1690,-82.9260,81.87,11111222 
COMPS,ioos:station:USF.COMPS:C10:1,2019-08-10T11:35:00,27.1690,-82.9260,81.55,11111222 
COMPS,ioos:station:USF.COMPS:C10:1,2019-08-10T12:35:00,27.1690,-82.9260,79.7,11111222 
COMPS,ioos:station:USF.COMPS:C10:1,2019-08-10T13:35:00,27.1690,-82.9260,81.19,11111222 
COMPS,ioos:station:USF.COMPS:C10:1,2019-08-10T14:35:00,27.1690,-82.9260,84.97,11111222 
COMPS,ioos:station:USF.COMPS:C10:1,2019-08-10T15:35:00,27.1690,-82.9260,81.77,11111222 
COMPS,ioos:station:USF.COMPS:C10:1,2019-08-10T16:35:00,27.1690,-82.9260,89.81,11111222 
COMPS,ioos:station:USF.COMPS:C10:1,2019-08-10T17:35:00,27.1690,-82.9260,86.2,11111222 
COMPS,ioos:station:USF.COMPS:C10:1,2019-08-10T18:35:00,27.1690,-82.9260,86.89,11111222 
COMPS,ioos:station:USF.COMPS:C10:1,2019-08-10T19:35:00,27.1690,-82.9260,82.1,11111222 
COMPS,ioos:station:USF.COMPS:C10:1,2019-08-10T20:35:00,27.1690,-82.9260,84.9,11111222 
COMPS,ioos:station:USF.COMPS:C10:1,2019-08-10T21:35:00,27.1690,-82.9260,82.44,11111222 
COMPS,ioos:station:USF.COMPS:C10:1,2019-08-10T22:35:00,27.1690,-82.9260,80.91,11111222 
COMPS,ioos:station:USF.COMPS:C10:1,2019-08-10T23:35:00,27.1690,-82.9260,83.19,11111222 
COMPS,ioos:station:USF.COMPS:C10:1,2019-08-11T00:35:00,27.1690,-82.9260,80.07,11111222 
COMPS,ioos:station:USF.COMPS:C10:1,2019-08-11T01:35:00,27.1690,-82.9260,81.14,11111222 
COMPS,ioos:station:USF.COMPS:C10:1,2019-08-11T02:35:00,27.1690,-82.9260,80.47,11111222 
COMPS,ioos:station:USF.COMPS:C10:1,2019-08-11T03:35:00,27.1690,-82.9260,81.38,11111222 
COMPS,ioos:station:USF.COMPS:C10:1,2019-08-11T04:35:00,27.1690,-82.9260,80.55,11111222 
COMPS,ioos:station:USF.COMPS:C10:1,2019-08-11T05:35:00,27.1690,-82.9260,81.05,11111222 
COMPS,ioos:station:USF.COMPS:C10:1,2019-08-11T06:35:00,27.1690,-82.9260,81.83,11111222 
COMPS,ioos:station:USF.COMPS:C10:1,2019-08-11T08:35:00,27.1690,-82.9260,81.8,11111222 
COMPS,ioos:station:USF.COMPS:C10:1,2019-08-11T09:35:00,27.1690,-82.9260,81.96,11111222 
COMPS,ioos:station:USF.COMPS:C10:1,2019-08-11T10:35:00,27.1690,-82.9260,82.57,11111222 
COMPS,ioos:station:USF.COMPS:C10:1,2019-08-11T11:35:00,27.1690,-82.9260,82.3,11111222 
COMPS,ioos:station:USF.COMPS:C10:1,2019-08-11T12:35:00,27.1690,-82.9260,80.1,11111222 
COMPS,ioos:station:USF.COMPS:C10:1,2019-08-11T13:35:00,27.1690,-82.9260,81.75,11111222 
COMPS,ioos:station:USF.COMPS:C10:1,2019-08-11T14:35:00,27.1690,-82.9260,81.48,11111222 
COMPS,ioos:station:USF.COMPS:C10:1,2019-08-11T15:35:00,27.1690,-82.9260,82.41,11111222 
COMPS,ioos:station:USF.COMPS:C10:1,2019-08-11T16:35:00,27.1690,-82.9260,84.8,11111222 
COMPS,ioos:station:USF.COMPS:C10:1,2019-08-11T17:35:00,27.1690,-82.9260,81.56,11111222 
COMPS,ioos:station:USF.COMPS:C10:1,2019-08-11T18:35:00,27.1690,-82.9260,81.33,11111222 
COMPS,ioos:station:USF.COMPS:C10:1,2019-08-11T19:35:00,27.1690,-82.9260,84.18,11111222 
COMPS,ioos:station:USF.COMPS:C10:1,2019-08-11T20:35:00,27.1690,-82.9260,84.82,11111222 
COMPS,ioos:station:USF.COMPS:C10:1,2019-08-11T21:35:00,27.1690,-82.9260,84.57,11111222 
COMPS,ioos:station:USF.COMPS:C10:1,2019-08-11T22:35:00,27.1690,-82.9260,84.45,11111222 
COMPS,ioos:station:USF.COMPS:C10:1,2019-08-11T23:35:00,27.1690,-82.9260,81.33,11111222 
COMPS,ioos:station:USF.COMPS:C10:1,2019-08-12T06:35:00,27.1690,-82.9260,82.43,11111222 
COMPS,ioos:station:USF.COMPS:C10:1,2019-08-12T09:35:00,27.1690,-82.9260,82.86,11111222 
COMPS,ioos:station:USF.COMPS:C10:1,2019-08-12T12:35:00,27.1690,-82.9260,80.74,11111222 
COMPS,ioos:station:USF.COMPS:C10:1,2019-08-12T14:35:00,27.1690,-82.9260,79.9,11111222 
COMPS,ioos:station:USF.COMPS:C10:1,2019-08-12T15:35:00,27.1690,-82.9260,80.64,11111222 
COMPS,ioos:station:USF.COMPS:C10:1,2019-08-12T16:35:00,27.1690,-82.9260,78.73,11111222 
COMPS,ioos:station:USF.COMPS:C10:1,2019-08-12T17:35:00,27.1690,-82.9260,84.32,11111222 
COMPS,ioos:station:USF.COMPS:C10:1,2019-08-12T18:35:00,27.1690,-82.9260,88.42,11111222 
COMPS,ioos:station:USF.COMPS:C10:1,2019-08-12T19:35:00,27.1690,-82.9260,87.08,11111222 
COMPS,ioos:station:USF.COMPS:C10:1,2019-08-12T20:35:00,27.1690,-82.9260,84.25,11111222 
COMPS,ioos:station:USF.COMPS:C10:1,2019-08-12T21:35:00,27.1690,-82.9260,83.96,11111222 
COMPS,ioos:station:USF.COMPS:C10:1,2019-08-12T22:35:00,27.1690,-82.9260,78.6,11111222 
COMPS,ioos:station:USF.COMPS:C10:1,2019-08-12T23:35:00,27.1690,-82.9260,80.43,11111222 
COMPS,ioos:station:USF.COMPS:C10:1,2019-08-13T00:35:00,27.1690,-82.9260,82.9,11111222 
COMPS,ioos:station:USF.COMPS:C10:1,2019-08-13T01:35:00,27.1690,-82.9260,80.75,11111222 
COMPS,ioos:station:USF.COMPS:C10:1,2019-08-13T02:35:00,27.1690,-82.9260,83.13,11111222 
COMPS,ioos:station:USF.COMPS:C10:1,2019-08-13T03:35:00,27.1690,-82.9260,82.5,11111222 
COMPS,ioos:station:USF.COMPS:C10:1,2019-08-13T04:35:00,27.1690,-82.9260,82.45,11111222 
COMPS,ioos:station:USF.COMPS:C10:1,2019-08-13T06:35:00,27.1690,-82.9260,80.66,11111222 
COMPS,ioos:station:USF.COMPS:C10:1,2019-08-13T08:35:00,27.1690,-82.9260,83.89,11111222 
COMPS,ioos:station:USF.COMPS:C10:1,2019-08-13T09:35:00,27.1690,-82.9260,87.31,11111222 
COMPS,ioos:station:USF.COMPS:C10:1,2019-08-13T11:35:00,27.1690,-82.9260,85.36,11111222 
COMPS,ioos:station:USF.COMPS:C10:1,2019-08-13T12:35:00,27.1690,-82.9260,87.0,11111222 
COMPS,ioos:station:USF.COMPS:C10:1,2019-08-13T13:35:00,27.1690,-82.9260,86.65,11111222 
COMPS,ioos:station:USF.COMPS:C10:1,2019-08-13T14:35:00,27.1690,-82.9260,86.42,11111222 
COMPS,ioos:station:USF.COMPS:C10:1,2019-08-13T15:35:00,27.1690,-82.9260,86.1,11111222 
COMPS,ioos:station:USF.COMPS:C10:1,2019-08-13T16:35:00,27.1690,-82.9260,80.48,11111222 
COMPS,ioos:station:USF.COMPS:C10:1,2019-08-13T17:35:00,27.1690,-82.9260,79.06,11111222 
COMPS,ioos:station:USF.COMPS:C10:1,2019-08-13T18:35:00,27.1690,-82.9260,84.48,11111222 